Flag for Philippines Weather past 2 weeks in Makati, Philippines

Now
84 °F

Scattered clouds.


Feels Like: 92 °F
Forecast: 78 / 89 °F
Wind: 6 mph from East

Location: National Airport

Current Time: Oct 22, 2014 at 6:16:52 PM

Latest Report: Oct 22, 2014 at 5:00 PM


Visibility: N/A

Pressure: 29.83 "Hg

Humidity: 74%

Dew point: 75 °F

Location of MakatiLocation

Historic Weather in Makati — Graph

°F

Makati temperature yesterday

Maximum temperature yesterday: 90 °F (at 11:00 AM)
Minimum temperature yesterday: 79 °F (at 4:00 AM)
Average temperature yesterday: 84 °F

Past Weeks' High & Low Weather Summary

 TemperatureHumidityPressure
High93 °F (Oct 19, 1:00 PM)100% (Oct 7, 5:00 PM)29.95 "Hg (Oct 7, 5:00 PM)
Low75 °F (Oct 15, 12:00 AM)49% (Oct 16, 1:00 PM)29.59 "Hg (Oct 9, 3:00 PM)
Average82 °F84%29.81 "Hg
* Reported Oct 7 5:00 PM — Oct 22 5:00 PM, Makati, Weather by CustomWeather, © 2014

Note: Actual official high and low records may vary slightly from our data, if they occured in-between our weather recording intervals... More about our weather records

Advertising

Makati weather history for previous 24 hours

 ConditionsComfort  
Time TempWeatherWind HumidityBarometerVisibility
5:00 PM
Oct 22
84 °FScattered clouds.6 mph74%29.83 "HgN/A
4:00 PM84 °FBroken clouds.9 mph84%29.80 "HgN/A
3:00 PM88 °FBroken clouds.7 mph66%29.80 "HgN/A
2:00 PM90 °FBroken clouds.6 mph67%29.86 "HgN/A
1:00 PM84 °FSprinkles. Broken clouds.8 mph89%29.86 "HgN/A
12:00 PM86 °FBroken clouds.6 mph79%29.89 "HgN/A
11:00 AM86 °FScattered clouds.8 mph75%29.89 "HgN/A
10:00 AM88 °FScattered clouds.6 mph66%29.92 "HgN/A
9:00 AM88 °FPassing clouds.52 mph66%29.92 "HgN/A
8:00 AM84 °FPassing clouds.6 mph79%29.92 "HgN/A
7:00 AM81 °FScattered clouds.1 mph100%29.89 "Hg6 mi
6:00 AM79 °FBroken clouds.No wind100%29.89 "HgN/A
5:00 AM79 °FPassing clouds.No wind100%29.86 "HgN/A
4:00 AM81 °FPassing clouds.2 mph94%29.86 "HgN/A
3:00 AM81 °FPassing clouds.5 mph94%29.86 "HgN/A
2:00 AM81 °FPassing clouds.2 mph89%29.86 "HgN/A
1:00 AM81 °FLight rain. Partly cloudy.5 mph100%29.89 "HgN/A
12:00 AM82 °FPassing clouds.3 mph89%29.92 "HgN/A
11:00 PM
Oct 21
82 °FPassing clouds.2 mph89%29.92 "HgN/A
10:00 PM82 °FPassing clouds.2 mph84%29.92 "HgN/A
9:00 PM84 °FPassing clouds.5 mph84%29.92 "HgN/A
8:00 PM84 °FPassing clouds.3 mph84%29.92 "HgN/A
7:00 PM84 °FPartly cloudy.6 mph84%29.89 "HgN/A
6:00 PM86 °FOvercast.3 mph79%29.86 "HgN/A
Weather by CustomWeather, © 2014

See weather overviewHow to use our weather pages